N1EVH Weather Reports


time (UTC)temp
F
wind
direction
speed
knots
gust
knots
rain 1hr
in
rain 24hr
in
rain mn
in
humidity
%
barometer
mb
20260505065006 54 173 1.7 4.3 0.00 0.00 0.00 64 1010.4
20260505064006 55 200 1.7 2.6 0.00 0.00 0.00 63 1010.4
20260505063504 55 209 0.9 2.6 0.00 0.00 0.00 63 1010.3
20260505063006 56 156 0.0 1.7 0.00 0.00 0.00 63 1010.3
20260505062504 56 173 0.0 0.9 0.00 0.00 0.00 62 1010.4
20260505062005 56 189 0.9 2.6 0.00 0.00 0.00 62 1010.4
20260505061504 56 220 4.3 10.4 0.00 0.00 0.00 62 1010.4
20260505061006 56 220 6.1 10.4 0.00 0.00 0.00 62 1010.4
20260505060504 56 213 7.0 11.3 0.00 0.00 0.00 62 1010.4
20260505060004 56 211 5.2 10.4 0.00 0.00 0.00 62 1010.4
20260505055504 56 215 7.0 12.2 0.00 0.00 0.00 62 1010.3
20260505055006 56 206 7.8 11.3 0.00 0.00 0.00 62 1010.3
20260505054504 57 213 6.1 12.2 0.00 0.00 0.00 62 1010.4
20260505054006 57 205 8.7 13.0 0.00 0.00 0.00 62 1010.3
20260505053504 57 218 6.1 13.0 0.00 0.00 0.00 61 1010.4
20260505053006 57 215 7.8 12.2 0.00 0.00 0.00 61 1010.3
20260505051504 57 220 8.7 13.9 0.00 0.00 0.00 61 1010.3
20260505051006 57 218 9.6 14.8 0.00 0.00 0.00 61 1010.3
20260505050504 57 217 8.7 13.0 0.00 0.00 0.00 61 1010.4
20260505041504 58 213 6.1 8.7 0.00 0.00 0.00 59 1010.5
20260505041005 58 220 6.1 8.7 0.00 0.00 0.00 59 1010.5
20260505040504 58 212 6.1 10.4 0.00 0.00 0.00 58 1010.5
20260505040004 58 214 5.2 11.3 0.00 0.00 0.00 58 1010.4
20260505035504 58 215 7.8 11.3 0.00 0.00 0.00 58 1010.4
20260505035006 58 207 6.1 10.4 0.00 0.00 0.00 58 1010.3
20260505034504 59 208 4.3 7.0 0.00 0.00 0.00 58 1010.3
20260505034006 59 213 4.3 12.2 0.00 0.00 0.00 57 1010.4
20260505033504 59 211 5.2 14.8 0.00 0.00 0.00 57 1010.3
20260505033006 59 199 7.8 13.0 0.00 0.00 0.00 57 1010.2
20260505032504 59 219 7.0 10.4 0.00 0.00 0.00 57 1010.2
20260505032006 59 217 7.8 12.2 0.00 0.00 0.00 56 1010.3
20260505031505 59 210 8.7 15.6 0.00 0.00 0.00 56 1010.4
20260505031006 59 200 8.7 11.3 0.00 0.00 0.00 56 1010.3
20260505030004 59 212 7.8 12.2 0.00 0.00 0.00 55 1010.4
20260505025504 59 214 9.6 13.9 0.00 0.00 0.00 55 1010.3
20260505025006 60 203 7.0 12.2 0.00 0.00 0.00 54 1010.3
20260505024504 60 213 8.7 15.6 0.00 0.00 0.00 54 1010.3
20260505023504 60 221 9.6 17.4 0.00 0.00 0.00 53 1010.3
20260505023006 60 221 9.6 17.4 0.00 0.00 0.00 53 1010.3
20260505022504 60 212 9.6 17.4 0.00 0.00 0.00 52 1010.2
20260505022006 61 212 10.4 14.8 0.00 0.00 0.00 52 1010.3
20260505021504 61 212 7.8 15.6 0.00 0.00 0.00 51 1010.3
20260505020504 61 213 7.0 12.2 0.00 0.00 0.00 51 1010.3
20260505020004 61 208 7.8 13.9 0.00 0.00 0.00 51 1010.3
20260505015504 61 210 7.0 14.8 0.00 0.00 0.00 51 1010.3
20260505015006 61 224 7.8 13.0 0.00 0.00 0.00 50 1010.3
20260505014504 61 215 7.8 13.0 0.00 0.00 0.00 50 1010.2
20260505014007 61 218 8.7 13.9 0.00 0.00 0.00 50 1010.2
20260505013503 61 211 7.8 13.0 0.00 0.00 0.00 50 1010.1
20260505013006 62 203 10.4 14.8 0.00 0.00 0.00 50 1010.0
20260505012005 62 219 10.4 17.4 0.00 0.00 0.00 49 1009.7
20260505011504 62 213 8.7 13.9 0.00 0.00 0.00 49 1009.7
20260505011006 62 216 12.2 18.2 0.00 0.00 0.00 49 1009.5
20260505010504 62 218 11.3 15.6 0.00 0.00 0.00 49 1009.4
20260505010004 62 218 12.2 20.9 0.00 0.00 0.00 48 1009.4
20260505005504 63 216 13.9 18.2 0.00 0.00 0.00 48 1009.3
20260505005006 62 196 11.3 15.6 0.00 0.00 0.00 49 1009.3
20260505004504 62 211 8.7 14.8 0.00 0.00 0.00 49 1009.2
20260505004006 62 213 8.7 13.0 0.00 0.00 0.00 49 1009.2
20260505003504 62 206 9.6 15.6 0.00 0.00 0.00 49 1009.0
20260505003005 63 217 8.7 13.9 0.00 0.00 0.00 49 1008.8
20260505002504 63 206 8.7 14.8 0.00 0.00 0.00 49 1008.7
20260505002006 63 211 8.7 14.8 0.00 0.00 0.00 48 1008.6
20260505001504 64 203 8.7 14.8 0.00 0.00 0.00 47 1008.4
20260505001006 65 209 9.6 20.9 0.00 0.00 0.00 45 1008.3
20260505000504 65 205 10.4 20.0 0.00 0.00 0.00 44 1008.2
20260505000004 65 208 8.7 15.6 0.00 0.00 0.00 44 1008.1
20260504235504 66 189 10.4 18.2 0.00 0.00 0.00 44 1008.0
20260504235006 66 200 11.3 24.3 0.00 0.00 0.00 44 1007.9
20260504234504 66 211 10.4 19.1 0.00 0.00 0.00 43 1007.9
20260504234006 66 221 12.2 20.9 0.00 0.00 0.00 43 1007.8
20260504233504 67 216 14.8 22.6 0.00 0.00 0.00 42 1007.8
20260504233006 67 169 14.8 25.2 0.00 0.00 0.00 42 1007.7
20260504231504 68 207 8.7 17.4 0.00 0.00 0.00 41 1007.3
20260504231006 68 209 10.4 18.2 0.00 0.00 0.00 40 1007.1
20260504230505 68 210 10.4 17.4 0.00 0.00 0.00 40 1007.0
20260504225504 69 209 14.8 22.6 0.00 0.00 0.00 38 1006.8
20260504225006 69 219 13.9 20.0 0.00 0.00 0.00 37 1006.7
20260504224505 69 216 13.9 18.2 0.00 0.00 0.00 36 1006.6
20260504223504 70 214 14.8 24.3 0.00 0.00 0.00 35 1006.4
20260504223005 71 229 12.2 17.4 0.00 0.00 0.00 34 1006.4
20260504222504 72 222 7.8 18.2 0.00 0.00 0.00 31 1006.3
20260504222006 72 198 9.6 19.1 0.00 0.00 0.00 31 1006.3
20260504221504 72 219 15.6 22.6 0.00 0.00 0.00 31 1006.3
20260504220004 72 222 12.2 17.4 0.00 0.00 0.00 30 1006.4
20260504215504 73 226 11.3 17.4 0.00 0.00 0.00 30 1006.4
20260504215007 73 219 13.0 20.0 0.00 0.00 0.00 30 1006.4
20260504214504 73 227 10.4 17.4 0.00 0.00 0.00 30 1006.3
20260504214006 73 243 11.3 14.8 0.00 0.00 0.00 30 1006.4
20260504213504 73 224 12.2 22.6 0.00 0.00 0.00 30 1006.4
20260504213006 73 209 14.8 20.9 0.00 0.00 0.00 30 1006.3
20260504212504 73 214 15.6 22.6 0.00 0.00 0.00 30 1006.3
20260504211504 73 219 12.2 18.2 0.00 0.00 0.00 30 1006.4
20260504210504 73 240 14.8 20.9 0.00 0.00 0.00 29 1006.4
20260504205504 73 222 11.3 24.3 0.00 0.00 0.00 29 1006.4
20260504205006 73 225 13.9 24.3 0.00 0.00 0.00 29 1006.4
20260504204504 73 178 12.2 18.2 0.00 0.00 0.00 29 1006.4
20260504204007 73 238 12.2 26.1 0.00 0.00 0.00 29 1006.5
20260504203006 73 236 13.9 22.6 0.00 0.00 0.00 28 1006.3
20260504202504 74 210 13.0 18.2 0.00 0.00 0.00 27 1006.4
20260504202006 73 225 13.9 21.7 0.00 0.00 0.00 27 1006.6
20260504201504 73 184 13.9 21.7 0.00 0.00 0.00 27 1006.6
20260504201006 73 136 16.5 26.1 0.00 0.00 0.00 27 1006.6
20260504200504 73 214 15.6 26.1 0.00 0.00 0.00 28 1006.6
20260504200004 73 227 17.4 25.2 0.00 0.00 0.00 27 1006.6
20260504195504 73 217 12.2 22.6 0.00 0.00 0.00 28 1006.5
20260504194504 73 226 14.8 21.7 0.00 0.00 0.00 27 1006.7
20260504193006 73 215 14.8 21.7 0.00 0.00 0.00 28 1006.8
20260504192006 73 223 15.6 21.7 0.00 0.00 0.00 27 1006.7
20260504191504 73 237 15.6 28.7 0.00 0.00 0.00 27 1006.8
20260504191006 72 244 12.2 20.0 0.00 0.00 0.00 27 1006.7
20260504190504 72 235 13.9 25.2 0.00 0.00 0.00 27 1006.9
20260504185504 72 275 14.8 26.9 0.00 0.00 0.00 28 1006.9
20260504185005 72 250 12.2 20.9 0.00 0.00 0.00 28 1006.9
20260504184504 72 218 15.6 27.8 0.00 0.00 0.00 28 1006.9
20260504184007 72 213 20.9 30.4 0.00 0.00 0.00 27 1006.9
20260504183504 72 220 17.4 24.3 0.00 0.00 0.00 27 1007.1
20260504183007 72 134 11.3 17.4 0.00 0.00 0.00 29 1007.0
20260504182504 72 231 14.8 19.1 0.00 0.00 0.00 28 1007.1
20260504182006 71 225 16.5 22.6 0.00 0.00 0.00 28 1007.2
20260504181504 71 242 12.2 22.6 0.00 0.00 0.00 28 1007.1
20260504181006 71 309 17.4 26.1 0.00 0.00 0.00 28 1007.4
20260504180503 71 215 17.4 26.1 0.00 0.00 0.00 28 1007.3
20260504180004 71 297 15.6 26.1 0.00 0.00 0.00 28 1007.3
20260504175504 71 264 15.6 22.6 0.00 0.00 0.00 29 1007.4
20260504175006 71 224 15.6 33.9 0.00 0.00 0.00 29 1007.5
20260504174504 70 219 13.0 26.9 0.00 0.00 0.00 29 1007.4
20260504174006 70 228 15.6 22.6 0.00 0.00 0.00 30 1007.5
20260504173504 70 218 13.9 22.6 0.00 0.00 0.00 30 1007.5
20260504173005 69 222 14.8 25.2 0.00 0.00 0.00 30 1007.4
20260504172504 70 221 15.6 22.6 0.00 0.00 0.00 30 1007.6
20260504172006 70 224 16.5 22.6 0.00 0.00 0.00 30 1007.6
20260504171504 70 242 13.9 25.2 0.00 0.00 0.00 30 1007.4
20260504171005 70 218 18.2 24.3 0.00 0.00 0.00 30 1007.3
20260504170504 70 236 11.3 25.2 0.00 0.00 0.00 31 1007.5
20260504151006 67 237 12.2 24.3 0.00 0.00 0.00 34 1008.9
20260504150504 67 233 13.9 22.6 0.00 0.00 0.00 34 1009.0
20260504140504 63 228 12.2 19.1 0.00 0.00 0.00 39 1009.5
20260504130503 59 236 13.0 20.9 0.00 0.00 0.00 43 1010.1
20260504110504 50 221 4.3 7.8 0.00 0.00 0.00 52 1010.8
20260504100504 49 212 2.6 5.2 0.00 0.00 0.00 54 1010.8
20260504082006 48 236 2.6 6.1 0.00 0.00 0.00 54 1010.4
20260504081504 48 236 4.3 6.1 0.00 0.00 0.00 54 1010.5
20260504081006 48 222 2.6 5.2 0.00 0.00 0.00 54 1010.5
20260504080504 48 230 3.5 7.0 0.00 0.00 0.00 54 1010.5